Location: Gokavaram
(16.9752°N, 81.0696°E)
Time: 12:03:27
(UTC+00:00)

H-2A R/B - Pass Details

Date: 15 May 2026
Orbit: 549 x 611 km, 98.5° (Epoch: 5 June)

Event Time Altitude Azimuth Distance (km) Brightness Sun altitude
Rises 22:27:15 0° 8° (N) 2,736 5.9 -21.9°
Reaches altitude 10° 22:29:22 10° 6° (N) 1,848 4.9 -21.5°
Maximum altitude 22:33:20 68° 283° (WNW) 614 1.8 -20.6°
Enters shadow 22:33:53 59° 236° (SW) 660 1.8 -20.5°
